Tracking 27079 objects as of 24-Mar-2023
HD Live streaming from Space Station
objects crossing your sky now

SL-16 DEB

Track SL-16 DEB now!
10-day predictions


NORAD ID: 28355
Int'l Code: 2004-021D
Perigee: 845.5 km
Apogee: 1,184.0 km
Inclination: 71.0 °
Period: 105.3 minutes
Semi major axis: 7385 km
RCS: 0.0925 m2 (small)
Launch date: June 10, 2004
Source: Commonwealth of Independent States (former USSR) (CIS)
Launch site: TYURATAM MISSILE AND SPACE COMPLEX (TTMTR)

Note: This is SATELLITE DEBRIS
Your satellite tracking list
Your tracking list is empty




NASA's NSSDC Master Catalog

Two Line Element Set (TLE):
1 28355U 04021D   23082.88912597  .00000283  00000-0  32064-3 0  9995
2 28355  70.9682 313.8429 0229147 183.6492 189.0446 13.67766619937299
Source of the keplerian elements: AFSPC